sat.trackr.live / text

‹ back to catalog

TURKSAT 6A

NORAD 60233 · 2024-127A

PAYLOAD ACTIVE UNKNOWN

§ Identity

Operator
Country
TURK
Launch date
2024-07-08
Launch site
AFETR
Launch vehicle
Mass (kg)
RCS (m²)

Purposes: comms

External: N2YO · Heavens-Above · Gunter

§ Orbital elements

Epoch: 2026-05-25T02:13:54.012000Z

Period
1,436.08 min
Inclination
0.0528°
Eccentricity
0.0001138
Mean motion
1.00273219 rev/d
Perigee alt
35,781.4 km
Apogee alt
35,791.0 km
Semi-major
42,164.3 km
B*
0.0000e+0
RAAN
144.5726°
Arg perigee
345.7898°
Mean anomaly
187.8052°
Rev number
678

§ Raw data

TURKSAT 6A1 60233U 24127A   26145.09298625  .00000144  00000+0  00000+0 0  99962 60233   0.0528 144.5726 0001138 345.7898 187.8052  1.00273219  6784

JSON: /api/v1/satellites/60233 · /tle

For live sub-satellite position, see the globe view (requires WebGL).

§ Visibility from observer

Set your observer location to see the next 7 days of passes ≥ 10°. The values pass through the URL so the page stays shareable.

No JS? Fill the form by hand. The geolocation button needs JavaScript.